EZS1083 LSGG-EDDN

Flight info

Callsign EZS1083
Flight time 0h 53m
Altitude 30000
Route SOSAL N871 KORED DCT BERSU N871 DITON/N0444F310 DCT LOKTA DCT TEDGO N869 LETKU LETKU1T
Aircraft A20N/M-SDE2E3FGHIRWXY/LB1

Departure

Time 2026-05-01 08:10
Airport Geneva International Airport (LSGG)

Arrival

Time 2026-05-01 09:03
Airport Nuremberg Airport (EDDN)
Time Latitude Longitude Altitude Speed Heading
2026-05-01 07:55 46.23034 6.10571 1394 ft 0 kts 135°
2026-05-01 08:03 46.23042 6.10560 1407 ft 3 kts 135°
2026-05-01 08:03 46.23072 6.10541 1405 ft 1 kts 226°
2026-05-01 08:04 46.23072 6.10542 1405 ft 0 kts 226°
2026-05-01 08:04 46.22973 6.10376 1396 ft 15 kts 229°
2026-05-01 08:05 46.23026 6.10203 1399 ft 13 kts 314°
2026-05-01 08:05 46.23022 6.10081 1402 ft 19 kts 227°
2026-05-01 08:05 46.22920 6.09928 1405 ft 20 kts 225°
2026-05-01 08:06 46.22759 6.09694 1403 ft 14 kts 225°
2026-05-01 08:06 46.22574 6.09400 1410 ft 22 kts 245°
2026-05-01 08:07 46.22619 6.09161 1413 ft 5 kts 33°
2026-05-01 08:07 46.22633 6.09179 1410 ft 0 kts 43°
2026-05-01 08:09 46.22633 6.09180 1410 ft 0 kts 43°
2026-05-01 08:09 46.22634 6.09180 1410 ft 0 kts 43°
2026-05-01 08:09 46.22707 6.09284 1414 ft 51 kts 45°
2026-05-01 08:10 46.23953 6.11118 1521 ft 188 kts 47°
2026-05-01 08:10 46.25874 6.14052 2952 ft 201 kts 45°
2026-05-01 08:11 46.28108 6.17281 4048 ft 253 kts 45°
2026-05-01 08:11 46.30628 6.20954 5893 ft 265 kts 46°
2026-05-01 08:12 46.33242 6.24790 7890 ft 273 kts 46°
2026-05-01 08:12 46.34583 6.26762 8841 ft 278 kts 46°
2026-05-01 08:12 46.36988 6.31200 10638 ft 290 kts 67°
2026-05-01 08:13 46.37689 6.34048 11035 ft 313 kts 74°
2026-05-01 08:13 46.38308 6.37166 11548 ft 330 kts 75°
2026-05-01 08:13 46.39569 6.43656 13261 ft 340 kts 75°
2026-05-01 08:14 46.40221 6.46959 14211 ft 343 kts 75°
2026-05-01 08:14 46.40660 6.49169 14735 ft 346 kts 75°
2026-05-01 08:14 46.41527 6.53530 15787 ft 350 kts 75°
2026-05-01 08:14 46.42204 6.56932 16615 ft 353 kts 75°
2026-05-01 08:15 46.42880 6.60330 17456 ft 356 kts 75°
2026-05-01 08:15 46.44385 6.67090 18966 ft 364 kts 66°
2026-05-01 08:15 46.45693 6.70248 19628 ft 369 kts 55°
2026-05-01 08:16 46.47276 6.73207 20284 ft 374 kts 52°
2026-05-01 08:16 46.48926 6.76146 20943 ft 378 kts 52°
2026-05-01 08:16 46.50522 6.78981 21558 ft 382 kts 52°
2026-05-01 08:16 46.52202 6.81979 22217 ft 385 kts 52°
2026-05-01 08:17 46.53889 6.85000 22879 ft 389 kts 52°
2026-05-01 08:17 46.55529 6.87944 23519 ft 392 kts 52°
2026-05-01 08:17 46.57241 6.91017 24185 ft 393 kts 52°
2026-05-01 08:17 46.58967 6.94117 24706 ft 396 kts 52°
2026-05-01 08:18 46.60704 6.97238 25195 ft 400 kts 52°
2026-05-01 08:18 46.64146 7.03436 26172 ft 405 kts 52°
2026-05-01 08:19 46.67700 7.09852 27135 ft 410 kts 52°
2026-05-01 08:19 46.69489 7.13087 27595 ft 413 kts 52°
2026-05-01 08:19 46.71293 7.16353 28044 ft 416 kts 52°
2026-05-01 08:19 46.73109 7.19644 28479 ft 418 kts 52°
2026-05-01 08:20 46.74934 7.22956 28899 ft 421 kts 52°
2026-05-01 08:20 46.76768 7.26289 29299 ft 424 kts 52°
2026-05-01 08:20 46.78617 7.29654 29717 ft 427 kts 52°
2026-05-01 08:20 46.79880 7.31954 29993 ft 428 kts 52°
2026-05-01 08:21 46.81720 7.35311 30296 ft 432 kts 51°
2026-05-01 08:21 46.83615 7.38772 30408 ft 431 kts 51°
2026-05-01 08:21 46.85478 7.42178 30534 ft 429 kts 51°
2026-05-01 08:21 46.87864 7.46552 30693 ft 430 kts 51°
2026-05-01 08:22 46.89131 7.48878 30777 ft 430 kts 51°
2026-05-01 08:22 46.90994 7.52304 30891 ft 431 kts 51°
2026-05-01 08:22 46.92855 7.55730 30994 ft 432 kts 51°
2026-05-01 08:22 46.94693 7.59116 30691 ft 430 kts 51°
2026-05-01 08:23 46.96558 7.62558 30375 ft 421 kts 51°
2026-05-01 08:23 47.00182 7.69259 30310 ft 425 kts 52°
2026-05-01 08:24 47.03860 7.76075 30323 ft 428 kts 52°
2026-05-01 08:24 47.07539 7.82908 30325 ft 428 kts 52°
2026-05-01 08:25 47.11213 7.89751 30319 ft 428 kts 52°
2026-05-01 08:25 47.14679 7.96828 30335 ft 428 kts 57°
2026-05-01 08:26 47.17884 8.04182 30325 ft 428 kts 58°
2026-05-01 08:26 47.21032 8.11588 30337 ft 428 kts 58°
2026-05-01 08:27 47.24170 8.19007 30338 ft 428 kts 58°
2026-05-01 08:27 47.27236 8.26253 30339 ft 428 kts 58°
2026-05-01 08:28 47.30674 8.32940 30331 ft 426 kts 44°
2026-05-01 08:28 47.35312 8.38294 30346 ft 425 kts 35°
2026-05-01 08:29 47.40223 8.43111 30340 ft 425 kts 33°
2026-05-01 08:29 47.45090 8.47751 30350 ft 425 kts 33°
2026-05-01 08:30 47.49906 8.52376 30344 ft 425 kts 33°
2026-05-01 08:30 47.54836 8.57159 30348 ft 425 kts 33°
2026-05-01 08:31 47.59728 8.61930 30335 ft 425 kts 34°
2026-05-01 08:31 47.64647 8.66742 30342 ft 425 kts 34°
2026-05-01 08:32 47.69571 8.71566 30335 ft 425 kts 34°
2026-05-01 08:32 47.74493 8.76398 30329 ft 425 kts 34°
2026-05-01 08:33 47.79413 8.81241 30337 ft 425 kts 34°
2026-05-01 08:33 47.84335 8.86096 30331 ft 425 kts 34°
2026-05-01 08:34 47.89230 8.90936 30334 ft 425 kts 34°
2026-05-01 08:34 47.94127 8.95791 30325 ft 424 kts 33°
2026-05-01 08:35 47.99017 9.00646 30328 ft 423 kts 33°
2026-05-01 08:35 48.03881 9.05488 29999 ft 415 kts 33°
2026-05-01 08:35 48.06265 9.07865 29716 ft 411 kts 33°
2026-05-01 08:36 48.08632 9.10228 29441 ft 409 kts 33°
2026-05-01 08:36 48.10991 9.12587 29173 ft 409 kts 34°
2026-05-01 08:36 48.13356 9.14928 28889 ft 407 kts 31°
2026-05-01 08:36 48.15853 9.16896 28613 ft 406 kts 24°
2026-05-01 08:37 48.18511 9.18263 28098 ft 404 kts 14°
2026-05-01 08:37 48.21112 9.19014 27590 ft 402 kts 10°
2026-05-01 08:37 48.23864 9.19607 27070 ft 399 kts
2026-05-01 08:37 48.26609 9.20090 26548 ft 396 kts
2026-05-01 08:38 48.29335 9.20521 26039 ft 394 kts
2026-05-01 08:38 48.32041 9.20938 25506 ft 392 kts
2026-05-01 08:38 48.34754 9.21361 25012 ft 390 kts
2026-05-01 08:38 48.37432 9.21790 24530 ft 387 kts
2026-05-01 08:39 48.40103 9.22229 24045 ft 385 kts
2026-05-01 08:39 48.42750 9.22672 23502 ft 383 kts
2026-05-01 08:39 48.45384 9.23117 22945 ft 381 kts
2026-05-01 08:39 48.47999 9.23561 22405 ft 379 kts
2026-05-01 08:40 48.53194 9.24446 21516 ft 373 kts
2026-05-01 08:40 48.55763 9.24935 21273 ft 373 kts 11°
2026-05-01 08:40 48.58279 9.25811 21019 ft 371 kts 18°
2026-05-01 08:41 48.60673 9.27206 20770 ft 369 kts 27°
2026-05-01 08:41 48.62875 9.29150 20523 ft 367 kts 36°
2026-05-01 08:41 48.64817 9.31616 20279 ft 365 kts 45°
2026-05-01 08:41 48.66547 9.34391 20040 ft 364 kts 49°
2026-05-01 08:42 48.68194 9.37301 19784 ft 363 kts 51°
2026-05-01 08:42 48.69773 9.40236 19535 ft 361 kts 52°
2026-05-01 08:42 48.71339 9.43201 19293 ft 360 kts 52°
2026-05-01 08:42 48.72895 9.46152 19062 ft 358 kts 52°
2026-05-01 08:43 48.74227 9.48665 18860 ft 358 kts 52°
2026-05-01 08:43 48.75783 9.51582 18623 ft 356 kts 52°
2026-05-01 08:43 48.77338 9.54480 18353 ft 355 kts 52°
2026-05-01 08:43 48.78898 9.57378 18091 ft 354 kts 52°
2026-05-01 08:44 48.80446 9.60249 17846 ft 352 kts 52°
2026-05-01 08:44 48.81994 9.63123 17581 ft 351 kts 52°
2026-05-01 08:44 48.83532 9.65982 17330 ft 350 kts 52°
2026-05-01 08:44 48.85053 9.68810 17078 ft 344 kts 52°
2026-05-01 08:45 48.86556 9.71608 16821 ft 341 kts 52°
2026-05-01 08:45 48.87849 9.74017 16605 ft 339 kts 52°
2026-05-01 08:45 48.89320 9.76763 16359 ft 340 kts 52°
2026-05-01 08:45 48.90799 9.79530 16112 ft 339 kts 52°
2026-05-01 08:46 48.92303 9.82346 15859 ft 339 kts 52°
2026-05-01 08:46 48.93788 9.85127 15619 ft 338 kts 52°
2026-05-01 08:46 48.95240 9.87853 15390 ft 337 kts 52°
2026-05-01 08:46 48.96708 9.90615 15145 ft 336 kts 52°
2026-05-01 08:47 48.98175 9.93374 14904 ft 334 kts 52°
2026-05-01 08:47 48.99634 9.96117 14675 ft 334 kts 52°
2026-05-01 08:47 49.01104 9.98887 14432 ft 333 kts 53°
2026-05-01 08:47 49.02555 10.01622 14193 ft 332 kts 52°
2026-05-01 08:48 49.04004 10.04358 13936 ft 331 kts 52°
2026-05-01 08:48 49.05445 10.07079 13684 ft 329 kts 53°
2026-05-01 08:48 49.06876 10.09786 13175 ft 328 kts 52°
2026-05-01 08:48 49.08231 10.12295 12688 ft 327 kts 49°
2026-05-01 08:49 49.09840 10.14709 12212 ft 324 kts 45°
2026-05-01 08:49 49.11501 10.17013 11663 ft 323 kts 43°
2026-05-01 08:49 49.13189 10.19238 11209 ft 320 kts 42°
2026-05-01 08:49 49.14889 10.21405 10739 ft 317 kts 42°
2026-05-01 08:50 49.16548 10.23519 10529 ft 306 kts 42°
2026-05-01 08:50 49.18148 10.25557 10393 ft 293 kts 43°
2026-05-01 08:50 49.19681 10.27519 10195 ft 284 kts 42°
2026-05-01 08:50 49.21181 10.29443 9826 ft 280 kts 43°
2026-05-01 08:51 49.22600 10.31263 9487 ft 277 kts 42°
2026-05-01 08:51 49.24090 10.33173 9068 ft 276 kts 43°
2026-05-01 08:51 49.25557 10.35060 8638 ft 276 kts 43°
2026-05-01 08:51 49.27012 10.36931 8436 ft 273 kts 43°
2026-05-01 08:52 49.28465 10.38806 8402 ft 274 kts 43°
2026-05-01 08:52 49.29924 10.40687 8404 ft 275 kts 44°
2026-05-01 08:52 49.31377 10.42561 8323 ft 273 kts 43°
2026-05-01 08:52 49.32828 10.44435 7915 ft 273 kts 43°
2026-05-01 08:53 49.34278 10.46305 7497 ft 272 kts 44°
2026-05-01 08:53 49.35719 10.48171 7139 ft 270 kts 44°
2026-05-01 08:53 49.37151 10.50031 6717 ft 270 kts 44°
2026-05-01 08:53 49.38580 10.51888 6274 ft 270 kts 44°
2026-05-01 08:54 49.40000 10.53733 5926 ft 266 kts 44°
2026-05-01 08:54 49.41408 10.55557 5499 ft 265 kts 45°
2026-05-01 08:54 49.42809 10.57371 5145 ft 263 kts 45°
2026-05-01 08:54 49.44190 10.59160 4981 ft 260 kts 45°
2026-05-01 08:55 49.45561 10.60940 4866 ft 254 kts 45°
2026-05-01 08:55 49.46874 10.62656 4717 ft 243 kts 45°
2026-05-01 08:55 49.48132 10.64299 4609 ft 232 kts 45°
2026-05-01 08:55 49.49357 10.65898 4270 ft 233 kts 45°
2026-05-01 08:56 49.50576 10.67476 3952 ft 226 kts 45°
2026-05-01 08:56 49.51768 10.69011 3633 ft 222 kts 45°
2026-05-01 08:56 49.52731 10.70722 3454 ft 203 kts 65°
2026-05-01 08:56 49.53142 10.72676 3333 ft 186 kts 87°
2026-05-01 08:57 49.53116 10.74565 3189 ft 170 kts 98°
2026-05-01 08:57 49.52963 10.76297 3053 ft 158 kts 99°
2026-05-01 08:57 49.52800 10.77901 2996 ft 145 kts 101°
2026-05-01 08:57 49.52695 10.78935 2886 ft 136 kts 99°
2026-05-01 08:58 49.52574 10.80171 2682 ft 126 kts 98°
2026-05-01 08:58 49.52470 10.81292 2349 ft 127 kts 98°
2026-05-01 08:58 49.52348 10.82587 2171 ft 112 kts 99°
2026-05-01 08:58 49.52229 10.83780 2315 ft 126 kts 101°
2026-05-01 08:59 49.52095 10.85073 2329 ft 134 kts 97°
2026-05-01 08:59 49.51973 10.86505 2455 ft 136 kts 96°
2026-05-01 08:59 49.51868 10.87986 2494 ft 144 kts 97°
2026-05-01 08:59 49.51761 10.89508 2457 ft 139 kts 98°
2026-05-01 09:00 49.51618 10.90798 2460 ft 130 kts 100°
2026-05-01 09:00 49.51458 10.92044 2496 ft 120 kts 101°
2026-05-01 09:00 49.51317 10.93298 2446 ft 119 kts 100°
2026-05-01 09:00 49.51188 10.94552 2324 ft 120 kts 100°
2026-05-01 09:01 49.51058 10.95803 2229 ft 121 kts 100°
2026-05-01 09:01 49.50910 10.97106 2160 ft 124 kts 101°
2026-05-01 09:01 49.50762 10.98430 2075 ft 127 kts 101°
2026-05-01 09:01 49.50626 10.99801 1896 ft 134 kts 99°
2026-05-01 09:02 49.50481 11.01214 1733 ft 139 kts 96°
2026-05-01 09:02 49.50354 11.02684 1509 ft 140 kts 98°
2026-05-01 09:02 49.50225 11.04176 1280 ft 142 kts 100°
2026-05-01 09:02 49.50076 11.05657 1111 ft 139 kts 99°
2026-05-01 09:03 49.49979 11.06687 1022 ft 129 kts 98°
2026-05-01 09:03 49.49872 11.07796 1037 ft 61 kts 98°
2026-05-01 09:03 49.49821 11.08333 1033 ft 48 kts 98°
2026-05-01 09:03 49.49716 11.08560 1034 ft 20 kts 205°
2026-05-01 09:04 49.49678 11.08508 1033 ft 1 kts 229°
2026-05-01 09:04 49.49667 11.08489 1033 ft 4 kts 230°
2026-05-01 09:04 49.49635 11.08424 1033 ft 12 kts 233°
2026-05-01 09:04 49.49556 11.08355 1036 ft 12 kts 188°
2026-05-01 09:05 49.49507 11.08331 1035 ft 7 kts 242°
2026-05-01 09:05 49.49508 11.08215 1032 ft 23 kts 280°
2026-05-01 09:05 49.49539 11.07920 1032 ft 28 kts 279°
2026-05-01 09:05 49.49571 11.07771 1031 ft 10 kts 304°
2026-05-01 09:06 49.49596 11.07647 1032 ft 18 kts 281°
2026-05-01 09:06 49.49618 11.07444 1029 ft 19 kts 279°
2026-05-01 09:06 49.49633 11.07295 1028 ft 7 kts 278°
2026-05-01 09:06 49.49633 11.07292 1028 ft 0 kts 278°
2026-05-01 09:07 49.49633 11.07290 1029 ft 2 kts 279°
2026-05-01 09:08 49.49674 11.07222 1029 ft 6 kts 17°
2026-05-01 09:08 49.49724 11.07314 1029 ft 20 kts 88°
2026-05-01 09:08 49.49705 11.07522 1033 ft 18 kts 98°
2026-05-01 09:08 49.49688 11.07699 1035 ft 16 kts 100°
2026-05-01 09:09 49.49633 11.07764 1034 ft 10 kts 195°
2026-05-01 09:09 49.49598 11.07691 1033 ft 10 kts 266°
2026-05-01 09:09 49.49545 11.07589 1030 ft 1 kts 191°